TITAN 3C TRANSTAGE DEB, 43453

Orbit data source: Space-Track

TITAN 3C TRANSTAGE DEB, 43453 is space debris in GEO originally from a launch on Sun, 09 Feb 1969 UTC launched from the Air Force Eastern Test Range (AFETR). Debris objects in space refer to the collection of defunct objects orbiting the Earth. Examples of debris include non-operational satellites, rocket bodies, and fragments generated from explosions, collisions, or faulty payload assembly.

Not visible in the next 10 days
Identifier
43453, 1969-013L
Orbit
GEO
Last TLE update
2 days ago
Origin
Manufacturer
Martin Marietta
Mission
Spacecraft
Bus & Motor
Unknown
Mass
Unknown
Launch date (UTC)
1969-02-09 (56 years ago)
Launch vehicle
Unknown
Launch site
Air Force Eastern Test Range (AFETR)
Object type
Payload
Rocket body
Debris
Shape & HBR
Unknown
Radar Cross Section
RCS unknown

Expand to show TLE details & history

TLE from 2 days ago
0 TITAN 3C TRANSTAGE DEB
1 43453U 69013L   25180.73761225 -.00000095  00000-0  00000-0 0  9992
2 43453   1.2115 174.4048 0979020 298.2011  51.7836  1.07397122 28258
Epoch: 2025-06-29T17:42Z
TLE epoch observation values (Epoch: 2025-06-29T17:42:09.698Z)
Latitude
Longitude
-9.64807°
Altitude
31,721.644 km
Speed
3.321 km/s
True Right ascension
11h 35m 47s
True Declination
0° 00' 00"
Sunlit
Object was in daylight at epoch
Visualization orbit readout
Latitude
-1.19412°
Longitude
-103.07088°
Altitude
30,444.167 km
Speed
3.428 km/s
Apparent Right ascension
05h 45m 54s
Apparent Declination
-6° 56' 57"
Sunlit
Object is in daylight
Visualization observer readout
Local Sidereal Time
21:10:31
Azimuth
68.362° E
Elevation
-33.721°
Doppler factor
1
Orbital elements
Apogee altitude
37,844.966 km
Perigee altitude
29,958.05 km
Semi-major axis
40,279.645 km
Eccentricity
0.0979
Inclination
1.2115°
RAAN
174.4048°
Arg. of periapsis
298.2011°
True anomaly
Unknown
Mean anomaly
51.7836°
Eccentric anomaly
Unknown
Mean motion
0.26848 °/min
Orbital period
1,340.87 mins
BSTAR
0
Loading historical data...
43453 neighbors
Loading maneuver chart data...
Loading SW <> Apogee altitude chart data...

TITAN 3C TRANSTAGE DEB Visibility

Observer location: undefined°, undefined°

TITAN 3C TRANSTAGE DEB is likely not visible in the next few days
Span
Click to sort rows by Start time (UTC) header in descending order
Start Az.
Max El. time (UTC)
Max El. Az.
Max El.
End time (UTC)
End Az.
|